AFR554 TFFG-TFFJ

Flight info

Callsign AFR554
Flight time 0h 9m
Altitude 4000
Route DCT PJM/N0261F030
Aircraft AT46/M-SDFGIRY/S

Departure

Time 2026-04-28 16:24
Airport Grand Case-l'Espérance Airport (TFFG)

Arrival

Time 2026-04-28 16:33
Airport St. Jean Airport (TFFJ)
Time Latitude Longitude Altitude Speed Heading
2026-04-28 16:17 18.10149 -63.04776 16 ft 0 kts 109°
2026-04-28 16:20 18.10143 -63.04766 16 ft 2 kts 137°
2026-04-28 16:20 18.10116 -63.04768 18 ft 6 kts 198°
2026-04-28 16:21 18.10114 -63.04831 16 ft 15 kts 288°
2026-04-28 16:21 18.10117 -63.04878 15 ft 0 kts 200°
2026-04-28 16:21 18.10113 -63.04878 16 ft 3 kts 189°
2026-04-28 16:21 18.10082 -63.04885 16 ft 6 kts 195°
2026-04-28 16:22 18.10064 -63.04945 15 ft 23 kts 287°
2026-04-28 16:22 18.10106 -63.05080 14 ft 17 kts 284°
2026-04-28 16:22 18.10142 -63.05198 15 ft 15 kts 296°
2026-04-28 16:22 18.10157 -63.05232 13 ft 2 kts 246°
2026-04-28 16:23 18.10145 -63.05217 15 ft 5 kts 112°
2026-04-28 16:23 18.10084 -63.05014 14 ft 57 kts 108°
2026-04-28 16:23 18.09898 -63.04395 32 ft 119 kts 107°
2026-04-28 16:23 18.09711 -63.03519 466 ft 137 kts 102°
2026-04-28 16:24 18.09563 -63.02501 1021 ft 145 kts 97°
2026-04-28 16:24 18.09471 -63.01424 1648 ft 152 kts 95°
2026-04-28 16:24 18.09362 -63.00271 2279 ft 162 kts 103°
2026-04-28 16:24 18.08666 -62.99361 2898 ft 170 kts 154°
2026-04-28 16:25 18.07524 -62.98927 3542 ft 178 kts 162°
2026-04-28 16:25 18.06300 -62.98516 3861 ft 200 kts 163°
2026-04-28 16:25 18.04866 -62.98057 3884 ft 225 kts 164°
2026-04-28 16:25 18.03311 -62.97589 3894 ft 243 kts 165°
2026-04-28 16:26 18.01620 -62.97093 3899 ft 256 kts 165°
2026-04-28 16:26 17.99892 -62.96592 3899 ft 253 kts 165°
2026-04-28 16:26 17.98307 -62.96152 3893 ft 224 kts 166°
2026-04-28 16:26 17.96879 -62.95748 3889 ft 200 kts 165°
2026-04-28 16:27 17.95614 -62.95381 3888 ft 181 kts 165°
2026-04-28 16:27 17.94423 -62.95031 3796 ft 177 kts 165°
2026-04-28 16:27 17.92020 -62.94332 3044 ft 180 kts 165°
2026-04-28 16:28 17.90832 -62.93985 2666 ft 175 kts 165°
2026-04-28 16:28 17.90078 -62.93744 2418 ft 173 kts 158°
2026-04-28 16:28 17.88943 -62.92617 1954 ft 168 kts 113°
2026-04-28 16:28 17.88888 -62.91475 1879 ft 141 kts 84°
2026-04-28 16:29 17.89193 -62.89805 1569 ft 107 kts 75°
2026-04-28 16:29 17.89625 -62.88252 1472 ft 110 kts 74°
2026-04-28 16:30 17.89859 -62.87409 1466 ft 127 kts 74°
2026-04-28 16:30 17.90208 -62.86594 1100 ft 122 kts 62°
2026-04-28 16:30 17.90397 -62.85743 662 ft 122 kts 96°
2026-04-28 16:30 17.90425 -62.84855 215 ft 125 kts 86°
2026-04-28 16:31 17.90440 -62.84001 67 ft 109 kts 90°
2026-04-28 16:31 17.90821 -62.83426 487 ft 114 kts
2026-04-28 16:31 17.91400 -62.83919 927 ft 119 kts 281°
2026-04-28 16:31 17.91487 -62.84880 1177 ft 137 kts 274°
2026-04-28 16:32 17.91555 -62.85787 1274 ft 124 kts 274°
2026-04-28 16:32 17.90465 -62.86256 1030 ft 115 kts 130°
2026-04-28 16:32 17.90420 -62.85411 481 ft 123 kts 74°
2026-04-28 16:33 17.90437 -62.84546 82 ft 122 kts 90°
2026-04-28 16:33 17.90443 -62.84100 14 ft 31 kts 90°
2026-04-28 16:33 17.90451 -62.84078 13 ft 4 kts 254°
2026-04-28 16:33 17.90444 -62.84134 17 ft 16 kts 269°
2026-04-28 16:34 17.90441 -62.84275 28 ft 17 kts 268°
2026-04-28 16:34 17.90437 -62.84366 33 ft 9 kts 266°
2026-04-28 16:34 17.90432 -62.84390 35 ft 0 kts 220°
2026-04-28 16:34 17.90421 -62.84390 35 ft 5 kts 181°
2026-04-28 16:35 17.90400 -62.84396 36 ft 4 kts 221°
2026-04-28 16:35 17.90392 -62.84460 41 ft 14 kts 270°
2026-04-28 16:35 17.90375 -62.84538 43 ft 6 kts 210°
2026-04-28 16:35 17.90366 -62.84544 46 ft 0 kts 216°